TimeMDT,TemperatureF,Dew PointF,Humidity,Sea Level PressureIn,VisibilityMPH,Wind Direction,Wind SpeedMPH,Gust SpeedMPH,PrecipitationIn,Events,Conditions,WindDirDegrees,DateUTC
12:53 AM,55.9,35.1,45,29.87,10.0,ESE,11.5,-,N/A,,Clear,120,2013-05-05 06:53:00
1:53 AM,53.1,35.1,50,29.88,10.0,SSE,8.1,-,N/A,,Clear,150,2013-05-05 07:53:00
2:53 AM,52.0,35.1,53,29.87,10.0,East,4.6,-,N/A,,Clear,100,2013-05-05 08:53:00
3:53 AM,48.9,34.0,56,29.87,10.0,Calm,Calm,-,N/A,,Clear,0,2013-05-05 09:53:00
4:53 AM,46.0,34.0,63,29.87,10.0,SE,3.5,-,N/A,,Clear,130,2013-05-05 10:53:00
5:53 AM,45.0,33.1,63,29.87,10.0,SSE,3.5,-,N/A,,Clear,160,2013-05-05 11:53:00
6:53 AM,46.9,33.1,59,29.88,10.0,ESE,6.9,-,N/A,,Clear,120,2013-05-05 12:53:00
7:53 AM,50.0,34.0,54,29.90,10.0,ESE,5.8,-,N/A,,Clear,120,2013-05-05 13:53:00
8:53 AM,55.9,33.1,42,29.88,10.0,Calm,Calm,-,N/A,,Clear,0,2013-05-05 14:53:00
9:53 AM,60.1,33.1,36,29.88,10.0,Calm,Calm,-,N/A,,Clear,0,2013-05-05 15:53:00
10:53 AM,63.0,33.1,33,29.88,10.0,Variable,3.5,-,N/A,,Clear,0,2013-05-05 16:53:00
11:53 AM,66.9,32.0,27,29.86,10.0,Calm,Calm,-,N/A,,Clear,0,2013-05-05 17:53:00
12:53 PM,68.0,32.0,26,29.84,10.0,Variable,3.5,-,N/A,,Clear,0,2013-05-05 18:53:00
1:53 PM,72.0,33.1,24,29.81,10.0,NW,3.5,-,N/A,,Clear,320,2013-05-05 19:53:00
2:53 PM,73.0,33.1,23,29.80,10.0,Calm,Calm,-,N/A,,Clear,0,2013-05-05 20:53:00
3:53 PM,75.0,33.1,22,29.77,10.0,Calm,Calm,-,N/A,,Clear,0,2013-05-05 21:53:00
4:53 PM,77.0,30.9,19,29.74,10.0,Variable,5.8,-,N/A,,Clear,0,2013-05-05 22:53:00
5:53 PM,78.1,32.0,19,29.72,10.0,North,10.4,-,N/A,,Clear,360,2013-05-05 23:53:00
6:53 PM,73.9,32.0,21,29.73,10.0,NE,15.0,23.0,N/A,,Scattered Clouds,50,2013-05-06 00:53:00
7:53 PM,72.0,28.9,20,29.73,10.0,ENE,20.7,24.2,N/A,,Scattered Clouds,60,2013-05-06 01:53:00
8:53 PM,70.0,28.9,22,29.73,10.0,ENE,13.8,-,N/A,,Clear,70,2013-05-06 02:53:00
9:53 PM,68.0,30.0,24,29.75,10.0,East,6.9,-,N/A,,Mostly Cloudy,100,2013-05-06 03:53:00
10:53 PM,66.9,30.0,25,29.75,10.0,East,11.5,-,N/A,,Clear,80,2013-05-06 04:53:00
11:53 PM,63.0,32.0,31,29.75,10.0,SSE,5.8,-,N/A,,Clear,150,2013-05-06 05:53:00